[[{"header":{"parameterUnit":"m.s-1","parameterCategory":1,"la1":30.2991,"la2":30.254,"lo1":-89.0895,"lo2":-89.0444,"dy":0.0017,"dx":0.0017,"nx":28,"ny":28,"refTime":"2023-03-20T15:00:00:Z","depth":0,"parameterNumber":2,"parameterNumberName":"U-component_of_WINDS"},"data":[0,0,0,0,0,0,0,0,0,0,0,0,0,0,0,0,0,0,0,0,0,0,0,0,0,0,0,0,0,0,0,0,0,0,0,0,0,0,0,0,0,0,0,0,0,0,0,0,0,0,0,0,0,0,0,0,0,0,-4.0761,-4.0762,0,-4.0807,-4.0808,-4.0808,-4.0704,-4.0701,-4.0698,-4.0695,-4.074,-4.0745,-4.0749,0,0,0,0,0,0,0,0,0,0,0,0,0,-4.0582,-4.0586,-4.0761,-4.0762,-4.0763,-4.0807,-4.0808,-4.0809,-4.0705,-4.0701,-4.0697,-4.0693,-4.0739,-4.0744,-4.0749,0,0,0,0,0,0,0,0,0,0,0,0,0,-4.0647,-4.0587,-4.0761,-4.0716,-4.0713,-4.0807,-4.0808,-4.0809,-4.0706,-4.0701,-4.0696,-4.0691,-4.0737,-4.0744,-4.075,-4.089,0,0,-4.077,-4.0773,0,0,0,0,0,0,0,0,-4.0643,-4.0654,-4.0722,-4.072,-4.0716,-4.0745,-4.0761,-4.0836,-4.0707,-4.0709,-4.0695,-4.0689,-4.0746,-4.0751,-4.0771,-4.0892,-4.0894,-4.077,-4.0774,-4.0777,-4.0779,0,0,0,0,0,0,0,-4.0639,-4.0651,-4.0779,-4.0723,-4.0719,-4.0693,-4.0697,-4.0775,-4.0755,-4.0708,-4.0701,-4.0707,-4.0743,-4.0765,-4.0771,-4.0895,-4.077,-4.0776,-4.078,-4.0782,-4.113,-4.1135,0,0,0,0,0,0,-4.064,-4.0648,-4.0778,-4.0781,-4.0667,-4.07,-4.0705,-4.0741,-4.0753,-4.0751,-4.0712,-4.0702,-4.0756,-4.0764,-4.0772,-4.0934,-4.0777,-4.0783,-4.0787,-4.1124,-4.1131,-4.1136,0,0,0,0,0,0,-4.0637,-4.0653,-4.0776,-4.0712,-4.0726,-4.0709,-4.075,-4.0744,-4.0766,-4.0756,-4.0752,-4.0738,-4.0753,-4.0763,-4.0861,-4.0934,-4.0786,-4.0792,-4.1118,-4.1126,-4.1134,-4.1261,0,0,0,0,0,0,-4.0632,-4.0652,-4.0706,-4.0714,-4.073,-4.0865,-4.0755,-4.0749,-4.0777,-4.0766,-4.078,-4.0777,-4.075,-4.0852,-4.0867,-4.0941,-4.0797,-4.1111,-4.1122,-4.1131,-4.125,-4.1272,-4.1291,0,0,0,0,0,-4.0626,-4.074,-4.0709,-4.0725,-4.0797,-4.0869,-4.0878,-4.0844,-4.0784,-4.0837,-4.083,-4.0777,-4.0925,-4.0863,-4.0879,-4.0956,-4.1106,-4.1119,-4.113,-4.124,-4.1268,-4.1291,0,0,0,0,0,0,-4.074,-4.074,-4.0706,-4.0826,-4.0849,-4.0852,-4.0917,-4.0875,-4.0914,-4.0902,-4.0858,-4.0862,-4.0967,-4.0972,-4.0902,-4.109,-4.1005,-4.1021,-4.1083,-4.1109,-4.1129,-4.1124,-4.0802,0,0,0,0,0,-4.078,-4.0839,-4.0836,-4.0942,-4.0955,-4.0935,-4.0965,-4.0938,-4.0959,-4.0967,-4.0968,-4.099,-4.1041,-4.1076,-4.1123,-4.1251,-4.1251,-4.1312,-4.1332,-4.1349,-4.1362,-4.1428,-4.1454,-4.1176,-4.1176,-4.1176,0,0,-4.0861,-4.0868,-4.0909,-4.0965,-4.0979,-4.1041,-4.0943,-4.1013,-4.1058,-4.0978,-4.1069,-4.1071,-4.1092,-4.1205,-4.1255,-4.1212,-4.144,-4.1365,-4.1378,-4.1382,-4.1443,-4.1469,-4.1493,-4.1184,-4.1183,-4.1181,0,0,-4.104,-4.1053,-4.1141,-4.1157,-4.118,-4.1165,-4.1187,-4.1197,-4.1194,-4.1286,-4.1226,-4.1279,-4.1369,-4.1386,-4.1406,-4.1592,-4.1542,-4.1608,-4.1715,-4.1779,-4.1801,-4.182,-4.1883,-4.1906,-4.1622,-4.1623,-4.1623,0,-4.1137,-4.1228,-4.1192,-4.1265,-4.1291,-4.1223,-4.1311,-4.1328,-4.1365,-4.1384,-4.1336,-4.1445,-4.1456,-4.157,-4.1615,-4.1635,-4.1656,-4.1605,-4.1801,-4.182,-4.1837,-4.1896,-4.1921,-4.163,-4.1629,-4.1629,-4.1628,0,-4.1346,-4.141,-4.1479,-4.1515,-4.1549,-4.163,-4.1605,-4.1644,-4.1614,-4.1604,-4.1697,-4.1707,-4.1753,-4.1779,-4.175,-4.1889,-4.1861,-4.1808,-4.1721,-4.1872,-4.1926,-4.1949,-4.1641,-4.1638,-4.1636,-4.1634,0,0,-4.1595,-4.1612,-4.1637,-4.1652,-4.1672,-4.172,-4.1798,-4.1843,-4.1875,-4.1904,-4.1965,-4.2043,-4.1994,-4.2017,-4.199,-4.2047,-4.2189,-4.1986,-4.1986,-4.2021,-4.2339,-4.2376,-4.2403,-4.2158,-4.2163,-4.2166,-4.2336,0,-4.1769,-4.1902,-4.1871,-4.2002,-4.2059,-4.1995,-4.2062,-4.2081,-4.2074,-4.2121,-4.2114,-4.2168,-4.21,-4.2113,-4.2167,-4.2161,-4.2252,-4.2149,-4.2213,-4.2216,-4.2206,-4.2432,-4.2472,-4.2632,-4.2358,-4.2361,-4.2364,0,-4.1989,-4.2025,-4.2161,-4.217,-4.2193,-4.2254,-4.2292,-4.2339,-4.2358,-4.2349,-4.2376,-4.2338,-4.2412,-4.2328,-4.2429,-4.2359,-4.2384,-4.2385,-4.239,-4.2392,-4.2296,-4.2437,-4.2682,-4.2705,-4.2398,-4.2395,-4.2393,0,-4.2153,-4.2236,-4.2327,-4.2343,-4.2357,-4.24,-4.2408,-4.2423,-4.2452,-4.2486,-4.2503,-4.2546,-4.2569,-4.2602,-4.2575,-4.2517,-4.268,-4.2593,-4.2672,-4.2673,-4.2706,-4.2704,-4.2956,-4.273,-4.2729,-4.2729,-4.2728,0,-4.2348,-4.2433,-4.24,-4.2456,-4.2549,-4.2514,-4.2606,-4.2606,-4.262,-4.2674,-4.2623,-4.2674,-4.2637,-4.2686,-4.2666,-4.2751,-4.2762,-4.2756,-4.2748,-4.2758,-4.2758,-4.2771,-4.2757,-4.2735,-4.2734,-4.2732,-4.2731,0,-4.2545,-4.2528,-4.2622,-4.2628,-4.2631,-4.2699,-4.2703,-4.2754,-4.2744,-4.2812,-4.2826,-4.2811,-4.2865,-4.2843,-4.29,-4.2886,-4.2994,-4.2975,-4.2987,-4.298,-4.3059,-4.305,-4.3324,-4.3357,-4.3114,-4.3116,-4.3118,0,-4.2669,-4.2732,-4.2745,-4.2777,-4.2788,-4.2842,-4.2871,-4.2839,-4.2871,-4.2898,-4.2945,-4.2995,-4.3032,-4.3121,-4.3114,-4.3157,-4.3135,-4.3229,-4.3141,-4.3148,-4.3132,-4.3127,-4.3131,-4.3245,-4.3248,-4.325,-4.3252,0,-4.2889,-4.2877,-4.2921,-4.2962,-4.2998,-4.3029,-4.3055,-4.3084,-4.3054,-4.3092,-4.3147,-4.3176,-4.3234,-4.3283,-4.3321,-4.3327,-4.3284,-4.328,-4.33,-4.3308,-4.3311,-4.3306,-4.303,-4.3273,-4.3271,-4.3269,-4.3268,-4.3267,-4.305,-4.3102,-4.3119,-4.3169,-4.3186,-4.3211,-4.3259,-4.3255,-4.33,-4.3344,-4.3324,-4.3386,-4.3403,-4.345,-4.3462,-4.351,-4.3473,-4.3503,-4.3509,-4.3516,-4.3524,-4.3307,-4.3517,-4.3517,-4.3516,-4.3516,-4.3515,0,-4.3263,-4.3271,-4.3318,-4.3356,-4.3395,-4.3353,-4.338,-4.3415,-4.3471,-4.3491,-4.3529,-4.359,-4.3637,-4.3635,-4.3678,-4.3716,-4.3697,-4.3728,-4.3723,-4.3724,-4.3557,-4.3534,-4.3743,-4.3743,-4.3742,-4.3742,-4.3742,-4.3742,-4.3379,-4.3464,-4.3454,-4.3547,-4.3554,-4.3614,-4.3633,-4.3656,-4.3671,-4.3742,-4.3781,-4.378,-4.379,-4.3833,-4.3874,-4.3872,-4.3888,-4.3926,-4.3916,-4.3759,-4.3736,-4.3715,-4.3692,-4.3931,-4.3931,-4.4079,-4.408,-4.4081]},{"header":{"parameterUnit":"m.s-1","parameterCategory":1,"la1":30.2991,"la2":30.254,"lo1":-89.0895,"lo2":-89.0444,"dy":0.0017,"dx":0.0017,"nx":28,"ny":28,"refTime":"2023-03-20T15:00:00:Z","depth":0,"parameterNumber":3,"parameterNumberName":"V-component_of_WINDS"},"data":[0,0,0,0,0,0,0,0,0,0,0,0,0,0,0,0,0,0,0,0,0,0,0,0,0,0,0,0,0,0,0,0,0,0,0,0,0,0,0,0,0,0,0,0,0,0,0,0,0,0,0,0,0,0,0,0,0,0,-0.5182,-0.5184,0,-0.5337,-0.5339,-0.5341,-0.5525,-0.5528,-0.5531,-0.5534,-0.5684,-0.5685,-0.5687,0,0,0,0,0,0,0,0,0,0,0,0,0,-0.5039,-0.504,-0.5182,-0.5184,-0.5186,-0.5337,-0.5339,-0.5341,-0.5525,-0.5528,-0.5532,-0.5535,-0.5684,-0.5685,-0.5687,0,0,0,0,0,0,0,0,0,0,0,0,0,-0.5138,-0.5041,-0.5182,-0.5296,-0.5308,-0.5336,-0.5339,-0.5342,-0.5524,-0.5529,-0.5533,-0.5537,-0.5683,-0.5685,-0.5687,-0.5613,0,0,-0.5693,-0.5694,0,0,0,0,0,0,0,0,-0.5132,-0.5143,-0.5278,-0.5289,-0.5302,-0.5417,-0.5344,-0.5432,-0.5523,-0.5442,-0.5534,-0.5539,-0.5591,-0.5601,-0.562,-0.562,-0.5626,-0.5693,-0.5694,-0.5695,-0.5696,0,0,0,0,0,0,0,-0.5125,-0.5137,-0.5243,-0.5279,-0.5294,-0.5338,-0.5356,-0.5361,-0.549,-0.5449,-0.5463,-0.5479,-0.5598,-0.5618,-0.5625,-0.5628,-0.5693,-0.5695,-0.5696,-0.5697,-0.5573,-0.5569,0,0,0,0,0,0,-0.5102,-0.513,-0.5239,-0.5248,-0.5226,-0.5337,-0.5358,-0.5375,-0.5491,-0.5513,-0.5476,-0.5487,-0.5612,-0.5622,-0.5631,-0.555,-0.5695,-0.5697,-0.5698,-0.5578,-0.5572,-0.5568,0,0,0,0,0,0,-0.5098,-0.511,-0.5232,-0.5193,-0.5212,-0.5335,-0.5353,-0.5376,-0.5396,-0.5511,-0.5534,-0.5472,-0.5616,-0.5628,-0.5616,-0.5558,-0.5698,-0.57,-0.5583,-0.5576,-0.557,-0.5387,0,0,0,0,0,0,-0.5093,-0.5107,-0.5082,-0.5191,-0.5213,-0.5216,-0.5349,-0.5376,-0.54,-0.5417,-0.5513,-0.5533,-0.562,-0.5612,-0.5618,-0.5563,-0.5701,-0.5589,-0.558,-0.5572,-0.5399,-0.5375,-0.5355,0,0,0,0,0,-0.5087,-0.5023,-0.508,-0.5092,-0.5185,-0.5213,-0.5225,-0.5329,-0.5394,-0.5368,-0.5442,-0.553,-0.5564,-0.5609,-0.5618,-0.5562,-0.5593,-0.5582,-0.5573,-0.5409,-0.538,-0.5356,0,0,0,0,0,0,-0.49,-0.5039,-0.5104,-0.5073,-0.513,-0.5244,-0.5214,-0.5295,-0.5332,-0.5346,-0.5471,-0.5491,-0.5463,-0.5513,-0.556,-0.5496,-0.5591,-0.5582,-0.5464,-0.5437,-0.5416,-0.5402,-0.5703,0,0,0,0,0,-0.4856,-0.487,-0.499,-0.4951,-0.4977,-0.509,-0.5106,-0.5182,-0.5244,-0.5268,-0.5342,-0.5397,-0.542,-0.5432,-0.546,-0.5409,-0.5431,-0.5375,-0.5352,-0.5334,-0.5323,-0.5297,-0.5273,-0.5535,-0.5535,-0.5535,0,0,-0.4763,-0.4841,-0.4842,-0.4915,-0.4968,-0.4977,-0.5109,-0.5113,-0.5119,-0.5268,-0.5261,-0.5317,-0.5387,-0.5354,-0.5343,-0.5394,-0.5257,-0.5321,-0.5305,-0.5305,-0.5284,-0.5259,-0.5237,-0.5528,-0.5529,-0.553,0,0,-0.4598,-0.466,-0.4634,-0.4685,-0.4765,-0.4841,-0.4834,-0.4937,-0.498,-0.4976,-0.5088,-0.5097,-0.5134,-0.5179,-0.5207,-0.506,-0.5141,-0.5066,-0.4948,-0.4922,-0.4901,-0.4883,-0.4827,-0.4806,-0.5056,-0.5055,-0.5055,0,-0.4472,-0.4492,-0.4609,-0.4607,-0.4634,-0.4774,-0.4746,-0.4789,-0.4872,-0.4887,-0.4944,-0.4994,-0.5051,-0.503,-0.4994,-0.5013,-0.5007,-0.5053,-0.4895,-0.4878,-0.4863,-0.4812,-0.4791,-0.5045,-0.5046,-0.5047,-0.5048,0,-0.4332,-0.4344,-0.4313,-0.4392,-0.4417,-0.4402,-0.4514,-0.4525,-0.4599,-0.4668,-0.4661,-0.4735,-0.4779,-0.4781,-0.4851,-0.4768,-0.4797,-0.4873,-0.497,-0.4827,-0.478,-0.4761,-0.5031,-0.5034,-0.5037,-0.504,0,0,-0.4049,-0.4196,-0.4182,-0.422,-0.4319,-0.4329,-0.4319,-0.4366,-0.4371,-0.4424,-0.4416,-0.4446,-0.4517,-0.4548,-0.4626,-0.4603,-0.4478,-0.4681,-0.4685,-0.4637,-0.4387,-0.4327,-0.4302,-0.4535,-0.4531,-0.4529,-0.438,0,-0.39,-0.3894,-0.3999,-0.3963,-0.3974,-0.4107,-0.4098,-0.4156,-0.4221,-0.4238,-0.4309,-0.4327,-0.4421,-0.444,-0.4424,-0.4496,-0.4428,-0.4509,-0.4524,-0.4524,-0.4499,-0.4278,-0.4215,-0.4071,-0.4363,-0.436,-0.4358,0,-0.3723,-0.3769,-0.3734,-0.3834,-0.3843,-0.3833,-0.3884,-0.39,-0.3967,-0.4016,-0.4051,-0.4141,-0.4136,-0.4232,-0.4224,-0.4277,-0.429,-0.4326,-0.4324,-0.4325,-0.4429,-0.427,-0.4028,-0.4004,-0.4331,-0.4333,-0.4335,0,-0.3516,-0.3569,-0.3555,-0.3583,-0.3701,-0.369,-0.3738,-0.3812,-0.3832,-0.3876,-0.389,-0.3931,-0.3953,-0.3981,-0.4079,-0.414,-0.4059,-0.4163,-0.4095,-0.4092,-0.4068,-0.4068,-0.382,-0.4083,-0.4084,-0.4084,-0.4084,0,-0.3336,-0.3307,-0.3464,-0.3454,-0.3426,-0.3548,-0.3516,-0.3577,-0.3641,-0.3643,-0.3762,-0.3761,-0.3892,-0.3905,-0.3981,-0.3961,-0.3971,-0.4008,-0.4027,-0.3995,-0.3989,-0.4001,-0.4012,-0.4078,-0.408,-0.4081,-0.4082,0,-0.3098,-0.3202,-0.3194,-0.3307,-0.3335,-0.3309,-0.3405,-0.3399,-0.3473,-0.3474,-0.3482,-0.3595,-0.3617,-0.3719,-0.3764,-0.3815,-0.3767,-0.381,-0.3744,-0.3757,-0.3682,-0.3685,-0.343,-0.3401,-0.3685,-0.3682,-0.368,0,-0.2973,-0.2955,-0.3067,-0.3079,-0.3122,-0.3139,-0.3162,-0.3281,-0.3299,-0.3376,-0.336,-0.3392,-0.3423,-0.3451,-0.3536,-0.3571,-0.3612,-0.352,-0.3617,-0.3585,-0.3606,-0.3604,-0.3601,-0.3497,-0.3494,-0.3491,-0.3488,0,-0.274,-0.2793,-0.2823,-0.2869,-0.2894,-0.2936,-0.2985,-0.2987,-0.3119,-0.3133,-0.3158,-0.3182,-0.323,-0.3258,-0.3308,-0.3355,-0.3441,-0.3458,-0.3443,-0.3407,-0.3368,-0.3385,-0.3683,-0.3462,-0.3465,-0.3466,-0.3468,-0.3469,-0.2553,-0.2543,-0.262,-0.2648,-0.2699,-0.2742,-0.2742,-0.2817,-0.2841,-0.289,-0.2959,-0.2973,-0.3042,-0.3117,-0.3157,-0.3169,-0.3218,-0.3198,-0.3192,-0.3184,-0.3166,-0.337,-0.3178,-0.3179,-0.318,-0.3181,-0.3182,0,-0.2323,-0.238,-0.2405,-0.2471,-0.2492,-0.2578,-0.2637,-0.2648,-0.266,-0.2718,-0.2748,-0.2775,-0.2804,-0.2892,-0.2929,-0.2921,-0.2961,-0.2926,-0.2925,-0.2934,-0.3121,-0.3128,-0.2893,-0.2893,-0.2893,-0.2893,-0.2893,-0.2893,-0.2205,-0.2191,-0.2253,-0.2265,-0.2322,-0.234,-0.2365,-0.2405,-0.2451,-0.2478,-0.2503,-0.2562,-0.2631,-0.2674,-0.2703,-0.2729,-0.2734,-0.2685,-0.2722,-0.2894,-0.2921,-0.2948,-0.2955,-0.2686,-0.2686,-0.2534,-0.2532,-0.2531]}]]